Regional Weather Roundup
Issued by NWS

Home | Current Version | Previous Version | Graphics & Text | Print | Product List | Glossary On
Versions: 1 2 3 4 5 6 7 8 9 10 11 12 13 14 15 16 17 18 19 20 21 22 23 24 25 26 27 28 29 30 31 32 33 34 35 36 37 38 39 40 41 42 43 44 45 46 47 48 49 50
000
ASUS43 KLMK 210202
RWRKY
KENTUCKY REGIONAL WEATHER ROUNDUP
NATIONAL WEATHER SERVICE LOUISVILLE KY
900 PM EST TUE FEB 20 2018

NOTE "FAIR" INDICATES FEW OR NO CLOUDS BELOW 12,000 FEET
WITH NO SIGNIFICANT WEATHER AND/OR OBSTRUCTIONS TO VISIBILITY.

KYZ001>023-026-027-061>063-070>075-210300-
WESTERN AND SOUTH CENTRAL KENTUCKY

CITY           SKY/WX    TMP DP  RH WIND       PRES   REMARKS
PADUCAH        CLOUDY    72  59  63 S10G21    30.04F
HENDERSON      MOCLDY    71  59  65 S16       30.06F
OWENSBORO      CLOUDY    70  60  70 S12       30.09S
HOPKINSVILLE   MOCLDY    71  59  65 S7        30.11S
BOWLING GREEN  FAIR      71  60  68 S9        30.16S
GLASGOW        NOT AVBL
$$

KYZ024-025-028>034-038-045-046-053-210300-
NORTH CENTRAL KENTUCKY

CITY           SKY/WX    TMP DP  RH WIND       PRES   REMARKS
LOUISVILLE/SDF CLOUDY    74  57  55 S12       30.12F
LOUISVILLE/LOU CLOUDY    73  58  59 S9        30.13F
FORT KNOX      MOCLDY    69  56  65 SE8       30.14F
$$

KYZ035>037-039>044-047>052-055>060-089>105-210300-
NORTHEAST KENTUCKY

CITY           SKY/WX    TMP DP  RH WIND       PRES   REMARKS
LEXINGTON      FAIR      69  56  62 S14       30.19S
COVINGTON      CLOUDY    70  57  63 S12       30.13S
FRANKFORT      MOCLDY    71  55  56 S12       30.16S
$$

KYZ054-064>069-076>088-106>120-210300-
SOUTHEAST KENTUCKY

CITY           SKY/WX    TMP DP  RH WIND       PRES   REMARKS
JACKSON        CLOUDY    70  52  52 VRB5      30.26F
LONDON         MOCLDY    71  55  56 S9G18     30.25F
SOMERSET       CLOUDY    70  55  60 MISG      30.25R
MIDDLESBORO    CLOUDY    69  55  59 CALM      30.30S
MONTICELLO     NOT AVBL
$$




USA.gov is the U.S. government's official web portal to all federal, state and local government web resources and services.